Regional Weather Roundup
Issued by NWS

Home | Current Version | Previous Version | Graphics & Text | Print | Product List | Glossary On
Versions: 1 2 3 4 5 6 7 8 9 10 11 12 13 14 15 16 17 18 19 20 21 22 23 24 25 26 27 28 29 30 31 32 33 34 35 36 37 38 39 40 41 42 43 44 45 46 47 48 49 50
000
ASUS43 KOAX 072102
RWRNE

WEATHER ROUNDUP FOR NEBRASKA
NATIONAL WEATHER SERVICE OMAHA NE
300 PM CST SUN FEB 07 2016

NOTES: SATELLITE DATA IS BEING USED TO AUGMENT CLOUD COVER ABOVE
       12000 FEET.
       "FAIR" INDICATES FEW OR NO CLOUDS BELOW 12,000 FEET WITH NO
       SIGNIFICANT WEATHER AND/OR OBSTRUCTIONS TO VISIBILITY.

  * THESE STATIONS DO NOT REPORT WEATHER SUCH AS RAIN...SNOW OR FOG.

NEZ001>004-019>022-054>056-072200-
NEBRASKA PANHANDLE

CITY           SKY/WX    TMP DP  RH WIND       PRES   REMARKS
SCOTTSBLUFF    CLOUDY    34  14  43 NW32G44   30.28F WCI  20
ALLIANCE       SUNNY     33  15  47 NW31G38   30.21F WCI  19
CHADRON        SUNNY     39  14  36 NW30G43   30.24S WCI  27
KIMBALL        CLOUDY    30  16  56 NW22G30   30.27S WCI  17
SIDNEY         CLOUDY    32  16  51 NW31G40   30.26S WCI  17
$$

NEZ057>060-069>072-079>082-072200-
SOUTHWEST NEBRASKA

CITY           SKY/WX    TMP DP  RH WIND       PRES   REMARKS
NORTH PLATTE   SUNNY     39  18  42 NW31G40   30.14F WCI  27
IMPERIAL       MOSUNNY   37  19  48 NW25G37   30.23F WCI  25
MCCOOK         SUNNY     40  23  50 NW28G38   30.20S WCI  29
$$

NEZ005>010-023>029-035>040-094-072200-
NORTH CENTRAL NEBRASKA

CITY           SKY/WX    TMP DP  RH WIND       PRES   REMARKS
VALENTINE      CLOUDY    37  16  42 NW28G49   30.05S WCI  25
AINSWORTH      PTSUNNY   38  14  37 NW36G49   30.03S WCI  25
BROKEN BOW     CLOUDY    40  15  36 NW36G58   30.06S WCI  27
ORD            CLOUDY    38  21  50 NW32G46   30.02S WCI  25
$$

NEZ041-046>049-061>064-073>077-083>087-072200-
SOUTH CENTRAL NEBRASKA

CITY           SKY/WX    TMP DP  RH WIND       PRES   REMARKS
GRAND ISLAND   CLOUDY    39  20  46 NW37G47   30.06R WCI  26
HASTINGS       CLOUDY    41  19  41 NW40G53   30.07R
HEBRON         MOSUNNY   42  26  53 W15G22    30.06S
$$

NEZ011>018-030>034-042>045-072200-
NORTHEAST NEBRASKA

CITY           SKY/WX    TMP DP  RH WIND       PRES   REMARKS
NORFOLK        LGT SNOW  36  28  73 NW24G37   29.95R WCI  24
BLAIR          CLOUDY    40  26  55 NW17G23   29.93S WCI  32
COLUMBUS *     PTSUNNY   36  21  55 NW28      30.01R WCI  23
FREMONT        CLOUDY    37  26  62 NW26G35   29.97R WCI  26
TEKAMAH        LGT RAIN  37  28  70 NW30G41   29.95R WCI  24
$$

NEZ050>053-065>068-078-088>093-072200-
SOUTHEAST NEBRASKA

CITY           SKY/WX    TMP DP  RH WIND       PRES   REMARKS
LINCOLN        CLOUDY    42  22  44 NW22G30   30.01R
OMAHA EPPLEY   PTSUNNY   43  23  45 W20G35    29.93F
BEATRICE       SUNNY     44  28  53 W21G29    30.02S
FALLS CITY     SUNNY     49  21  33 NW33G49   29.99F
NEBRASKA CITY  MOSUNNY   44  25  46 NW22G30   29.97F
$$

NEZ044-045-051>053-067-072200-
OMAHA AREA

CITY           SKY/WX    TMP DP  RH WIND       PRES   REMARKS
OMAHA EPPLEY   PTSUNNY   43  23  45 W20G35    29.93F
BLAIR          CLOUDY    40  26  55 NW17G23   29.93S WCI  32
FREMONT        CLOUDY    37  26  62 NW26G35   29.97R WCI  26
OFFUTT AFB     CLOUDY    42  22  45 NW25G35   29.93F
WAHOO          CLOUDY    40  24  53 NW36G49   29.97R WCI  27
$$



USA.gov is the U.S. government's official web portal to all federal, state and local government web resources and services.